TimeCDT,TemperatureF,Dew PointF,Humidity,Sea Level PressureIn,VisibilityMPH,Wind Direction,Wind SpeedMPH,Gust SpeedMPH,PrecipitationIn,Events,Conditions,WindDirDegrees,DateUTC
12:55 AM,52.7,51.8,97,29.93,2.5,Calm,Calm,-,N/A,,Overcast,0,2012-10-13 05:55:00
1:35 AM,53.4,52.7,97,29.91,1.2,Calm,Calm,-,N/A,Thunderstorm,Overcast,0,2012-10-13 06:35:00
1:55 AM,54.5,53.8,97,29.90,1.8,Calm,Calm,-,N/A,Thunderstorm,Overcast,0,2012-10-13 06:55:00
2:15 AM,55.6,55.0,98,29.89,1.5,SSE,5.8,-,N/A,Thunderstorm,Overcast,150,2012-10-13 07:15:00
2:35 AM,57.2,56.7,98,29.88,1.5,SSE,6.9,-,N/A,,Overcast,160,2012-10-13 07:35:00
2:55 AM,59.0,58.5,98,29.87,2.0,South,12.7,-,N/A,Rain-Thunderstorm,Light Thunderstorms and Rain,170,2012-10-13 07:55:00
3:15 AM,58.5,57.7,97,29.93,2.5,West,10.4,27.6,0.17,Rain-Thunderstorm,Heavy Thunderstorms and Rain,270,2012-10-13 08:15:00
3:35 AM,57.4,56.3,96,29.90,3.0,West,5.8,-,0.38,Rain-Thunderstorm,Thunderstorms and Rain,260,2012-10-13 08:35:00
3:55 AM,57.0,55.9,96,29.89,5.0,South,4.6,-,0.45,Rain-Thunderstorm,Thunderstorms and Rain,180,2012-10-13 08:55:00
4:15 AM,58.3,57.4,97,29.85,7.0,South,11.5,16.1,0.04,Rain-Thunderstorm,Thunderstorms and Rain,170,2012-10-13 09:15:00
4:35 AM,57.6,56.5,96,29.81,10.0,SSE,11.5,-,0.06,,Mostly Cloudy,150,2012-10-13 09:35:00
4:55 AM,58.5,57.4,96,29.82,10.0,South,12.7,25.3,0.06,Rain-Thunderstorm,Light Thunderstorms and Rain,190,2012-10-13 09:55:00
5:15 AM,59.5,57.2,92,29.79,10.0,South,10.4,19.6,0.01,Rain,Light Rain,180,2012-10-13 10:15:00
5:35 AM,59.2,57.2,93,29.78,10.0,South,9.2,-,0.01,,Scattered Clouds,190,2012-10-13 10:35:00
5:55 AM,59.4,57.2,93,29.80,10.0,South,9.2,-,0.01,,Clear,190,2012-10-13 10:55:00
6:15 AM,59.0,57.2,94,29.81,10.0,WSW,4.6,-,N/A,,Clear,250,2012-10-13 11:15:00
6:35 AM,58.8,57.2,94,29.80,10.0,SSW,3.5,-,N/A,,Clear,200,2012-10-13 11:35:00
6:55 AM,59.2,57.4,94,29.81,10.0,West,6.9,-,N/A,Rain,Light Rain,280,2012-10-13 11:55:00
7:15 AM,58.3,56.3,93,29.81,10.0,West,3.5,-,N/A,,Scattered Clouds,270,2012-10-13 12:15:00
7:35 AM,58.1,56.3,94,29.81,10.0,Calm,Calm,-,N/A,,Scattered Clouds,0,2012-10-13 12:35:00
7:55 AM,57.6,55.6,93,29.78,10.0,Calm,Calm,-,N/A,,Clear,0,2012-10-13 12:55:00
8:15 AM,56.5,55.4,96,29.79,10.0,Calm,Calm,-,N/A,,Clear,0,2012-10-13 13:15:00
8:55 AM,56.5,55.6,97,29.79,10.0,Calm,Calm,-,N/A,,Clear,0,2012-10-13 13:55:00
9:35 AM,61.2,59.2,93,29.75,10.0,South,3.5,-,N/A,,Clear,170,2012-10-13 14:35:00
9:55 AM,63.9,60.6,89,29.77,10.0,SSW,5.8,-,N/A,,Clear,210,2012-10-13 14:55:00
10:15 AM,64.4,61.0,89,29.78,10.0,SSW,10.4,16.1,N/A,,Clear,200,2012-10-13 15:15:00
10:35 AM,66.0,61.3,85,29.77,10.0,SSW,6.9,-,N/A,,Scattered Clouds,200,2012-10-13 15:35:00
10:55 AM,67.6,61.7,81,29.77,10.0,SSW,9.2,-,N/A,,Clear,200,2012-10-13 15:55:00
11:15 AM,69.4,62.1,77,29.77,10.0,South,11.5,17.3,N/A,,Clear,190,2012-10-13 16:15:00
11:35 AM,70.2,62.2,76,29.77,10.0,SSW,15.0,21.9,N/A,,Scattered Clouds,200,2012-10-13 16:35:00
11:55 AM,70.5,62.6,76,29.76,10.0,SSW,13.8,17.3,N/A,,Overcast,200,2012-10-13 16:55:00
12:15 PM,70.0,61.5,74,29.76,10.0,South,9.2,18.4,N/A,,Overcast,190,2012-10-13 17:15:00
12:35 PM,68.9,61.7,78,29.75,10.0,South,10.4,16.1,N/A,,Overcast,180,2012-10-13 17:35:00
12:55 PM,68.2,61.7,80,29.73,10.0,South,10.4,-,N/A,,Overcast,170,2012-10-13 17:55:00
1:15 PM,68.9,62.4,80,29.72,10.0,South,12.7,18.4,N/A,,Overcast,180,2012-10-13 18:15:00
1:35 PM,71.2,63.1,75,29.71,10.0,South,16.1,21.9,N/A,,Overcast,170,2012-10-13 18:35:00
1:55 PM,71.6,63.7,76,29.70,10.0,South,17.3,21.9,N/A,,Mostly Cloudy,180,2012-10-13 18:55:00
2:15 PM,74.3,64.4,71,29.69,10.0,South,12.7,-,N/A,,Mostly Cloudy,190,2012-10-13 19:15:00
2:35 PM,73.6,64.6,73,29.68,10.0,South,9.2,18.4,N/A,,Mostly Cloudy,190,2012-10-13 19:35:00
2:55 PM,72.5,64.9,77,29.67,10.0,South,6.9,-,N/A,,Overcast,190,2012-10-13 19:55:00
3:35 PM,73.9,65.3,74,29.66,10.0,SSW,9.2,-,N/A,,Overcast,200,2012-10-13 20:35:00
3:55 PM,73.9,64.6,72,29.66,10.0,SSW,6.9,-,N/A,,Overcast,210,2012-10-13 20:55:00
4:15 PM,73.9,64.8,73,29.66,10.0,SW,4.6,-,N/A,,Overcast,230,2012-10-13 21:15:00
4:35 PM,75.2,64.6,69,29.66,10.0,WSW,6.9,-,N/A,,Overcast,250,2012-10-13 21:35:00
4:55 PM,75.7,64.6,68,29.64,10.0,WSW,4.6,-,N/A,,Scattered Clouds,250,2012-10-13 21:55:00
5:15 PM,75.4,64.4,69,29.63,10.0,West,3.5,-,N/A,,Clear,270,2012-10-13 22:15:00
5:35 PM,73.6,64.4,73,29.60,10.0,Calm,Calm,-,N/A,,Clear,0,2012-10-13 22:35:00
5:55 PM,72.0,63.9,76,29.60,10.0,Calm,Calm,-,N/A,,Clear,0,2012-10-13 22:55:00
6:15 PM,70.7,64.0,79,29.62,10.0,Calm,Calm,-,N/A,Thunderstorm,Scattered Clouds,0,2012-10-13 23:15:00
6:35 PM,69.8,64.0,82,29.63,10.0,Calm,Calm,-,N/A,Rain-Thunderstorm,Light Thunderstorms and Rain,0,2012-10-13 23:35:00
7:35 PM,62.2,58.5,87,29.59,10.0,ESE,4.6,-,N/A,,Mostly Cloudy,110,2012-10-14 00:35:00
7:55 PM,61.7,58.1,88,29.58,10.0,SE,5.8,-,N/A,,Clear,140,2012-10-14 00:55:00
8:15 PM,61.7,57.2,85,29.58,10.0,SSE,5.8,-,N/A,,Clear,160,2012-10-14 01:15:00
8:55 PM,61.2,57.0,86,29.61,10.0,Calm,Calm,-,N/A,,Clear,0,2012-10-14 01:55:00
9:15 PM,59.7,56.3,88,29.63,10.0,Calm,Calm,-,N/A,,Scattered Clouds,0,2012-10-14 02:15:00
9:35 PM,59.0,56.3,91,29.64,10.0,Calm,Calm,-,N/A,,Scattered Clouds,0,2012-10-14 02:35:00
9:55 PM,59.2,56.8,92,29.65,10.0,Calm,Calm,-,N/A,,Scattered Clouds,0,2012-10-14 02:55:00
10:15 PM,59.9,57.2,91,29.65,10.0,Calm,Calm,-,N/A,,Mostly Cloudy,0,2012-10-14 03:15:00
11:15 PM,59.4,56.8,91,29.64,10.0,Calm,Calm,-,0.01,Rain,Rain,0,2012-10-14 04:15:00
11:35 PM,59.5,57.4,93,29.66,3.0,ENE,5.8,-,0.21,Rain-Thunderstorm,Heavy Thunderstorms and Rain,70,2012-10-14 04:35:00